Time,TemperatureF,DewpointF,PressureIn,WindDirection,WindDirectionDegrees,WindSpeedMPH,WindSpeedGustMPH,Humidity,HourlyPrecipIn,Conditions,Clouds,dailyrainin,SolarRadiationWatts/m^2,SoftwareType,DateUTC
2013-02-08 00:00:00,31.8,23.2,30.09,ESE,103,2.0,6.0,70,0.00,,,0.00,0,WxPro DR1,2013-02-08 05:00:00,
2013-02-08 00:01:00,31.8,23.2,30.09,ESE,103,2.0,6.0,70,0.00,,,0.00,0,WxPro DR1,2013-02-08 05:01:00,
2013-02-08 00:06:00,31.7,23.4,30.09,ESE,115,1.0,6.0,71,0.00,,,0.00,0,WxPro DR1,2013-02-08 05:06:00,
2013-02-08 00:11:00,31.7,23.0,30.09,ESE,116,3.0,6.0,70,0.00,,,0.00,0,WxPro DR1,2013-02-08 05:11:00,
2013-02-08 00:16:00,31.7,23.0,30.09,ESE,121,1.0,6.0,70,0.00,,,0.00,0,WxPro DR1,2013-02-08 05:16:00,
2013-02-08 00:21:00,31.7,23.0,30.08,ESE,118,3.0,6.0,70,0.00,,,0.00,0,WxPro DR1,2013-02-08 05:21:00,
2013-02-08 00:26:00,31.6,23.0,30.09,ESE,118,0.0,3.0,70,0.00,,,0.00,0,WxPro DR1,2013-02-08 05:26:00,
2013-02-08 00:31:00,31.5,22.9,30.08,ESE,117,1.0,3.0,70,0.00,,,0.00,0,WxPro DR1,2013-02-08 05:31:00,
2013-02-08 00:36:00,31.6,23.3,30.08,ESE,115,1.0,2.0,71,0.00,,,0.00,0,WxPro DR1,2013-02-08 05:36:00,
2013-02-08 00:41:00,31.6,23.3,30.08,ESE,115,0.0,2.0,71,0.00,,,0.00,0,WxPro DR1,2013-02-08 05:41:00,
2013-02-08 00:46:00,31.6,23.2,30.08,ESE,115,0.0,2.0,71,0.00,,,0.00,0,WxPro DR1,2013-02-08 05:46:00,
2013-02-08 00:51:00,31.5,23.2,30.07,ESE,114,0.0,2.0,71,0.00,,,0.00,0,WxPro DR1,2013-02-08 05:51:00,
2013-02-08 00:56:00,31.5,23.2,30.07,ESE,114,0.0,1.0,71,0.00,,,0.00,0,WxPro DR1,2013-02-08 05:56:00,
2013-02-08 01:01:00,31.4,23.4,30.07,ESE,115,1.0,1.0,72,0.00,,,0.00,0,WxPro DR1,2013-02-08 06:01:00,
2013-02-08 01:06:00,31.2,23.6,30.07,ESE,115,0.0,1.0,73,0.00,,,0.00,0,WxPro DR1,2013-02-08 06:06:00,
2013-02-08 01:11:00,31.1,23.5,30.06,ESE,115,0.0,3.0,73,0.00,,,0.00,0,WxPro DR1,2013-02-08 06:11:00,
2013-02-08 01:16:00,31.1,23.5,30.06,ESE,114,0.0,3.0,73,0.00,,,0.00,0,WxPro DR1,2013-02-08 06:16:00,
2013-02-08 01:21:00,31.1,23.5,30.06,ESE,115,0.0,1.0,73,0.00,,,0.00,0,WxPro DR1,2013-02-08 06:21:00,
2013-02-08 01:26:00,31.0,23.1,30.06,ESE,114,0.0,2.0,72,0.00,,,0.00,0,WxPro DR1,2013-02-08 06:26:00,
2013-02-08 01:31:00,31.0,23.4,30.06,ESE,113,0.0,2.0,73,0.00,,,0.00,0,WxPro DR1,2013-02-08 06:31:00,
2013-02-08 01:36:00,31.0,23.1,30.06,ESE,114,0.0,1.0,72,0.00,,,0.00,0,WxPro DR1,2013-02-08 06:36:00,
2013-02-08 01:41:00,31.0,23.4,30.06,ESE,114,0.0,1.0,73,0.00,,,0.00,0,WxPro DR1,2013-02-08 06:41:00,
2013-02-08 01:46:00,31.0,23.4,30.05,ESE,114,1.0,2.0,73,0.00,,,0.00,0,WxPro DR1,2013-02-08 06:46:00,
2013-02-08 01:51:00,31.0,23.1,30.06,East,88,0.0,4.0,72,0.00,,,0.00,0,WxPro DR1,2013-02-08 06:51:00,
2013-02-08 01:56:00,31.1,23.5,30.05,East,87,1.0,4.0,73,0.00,,,0.00,0,WxPro DR1,2013-02-08 06:56:00,
2013-02-08 02:01:00,31.1,23.5,30.06,East,87,0.0,1.0,73,0.00,,,0.00,0,WxPro DR1,2013-02-08 07:01:00,
2013-02-08 02:06:00,31.1,23.5,30.05,East,87,2.0,2.0,73,0.00,,,0.00,0,WxPro DR1,2013-02-08 07:06:00,
2013-02-08 02:11:00,31.1,23.5,30.05,East,90,2.0,2.0,73,0.00,,,0.00,0,WxPro DR1,2013-02-08 07:11:00,
2013-02-08 02:16:00,31.1,23.5,30.05,East,90,0.0,2.0,73,0.00,,,0.00,0,WxPro DR1,2013-02-08 07:16:00,
2013-02-08 02:21:00,31.1,23.1,30.05,East,83,0.0,3.0,72,0.00,,,0.00,0,WxPro DR1,2013-02-08 07:21:00,
2013-02-08 02:26:00,31.2,23.2,30.05,ESE,103,1.0,3.0,72,0.00,,,0.00,0,WxPro DR1,2013-02-08 07:26:00,
2013-02-08 02:31:00,31.3,23.1,30.04,East,101,1.0,4.0,71,0.00,,,0.00,0,WxPro DR1,2013-02-08 07:31:00,
2013-02-08 02:36:00,31.4,23.1,30.04,East,98,2.0,5.0,71,0.00,,,0.00,0,WxPro DR1,2013-02-08 07:36:00,
2013-02-08 02:41:00,31.5,23.2,30.03,ESE,105,0.0,5.0,71,0.00,,,0.00,0,WxPro DR1,2013-02-08 07:41:00,
2013-02-08 02:46:00,31.5,23.2,30.03,ESE,105,0.0,5.0,71,0.00,,,0.00,0,WxPro DR1,2013-02-08 07:46:00,
2013-02-08 02:51:00,31.6,23.3,30.03,SE,130,1.0,7.0,71,0.00,,,0.00,0,WxPro DR1,2013-02-08 07:51:00,
2013-02-08 02:56:00,31.7,23.4,30.03,ESE,106,2.0,7.0,71,0.00,,,0.00,0,WxPro DR1,2013-02-08 07:56:00,
2013-02-08 03:01:00,31.8,23.1,30.02,ESE,105,0.0,5.0,70,0.00,,,0.00,0,WxPro DR1,2013-02-08 08:01:00,
2013-02-08 03:06:00,31.9,23.2,30.02,ESE,109,1.0,7.0,70,0.00,,,0.00,0,WxPro DR1,2013-02-08 08:06:00,
2013-02-08 03:11:00,31.9,23.2,30.01,East,91,3.0,7.0,70,0.00,,,0.00,0,WxPro DR1,2013-02-08 08:11:00,
2013-02-08 03:16:00,32.0,23.3,30.01,ESE,115,1.0,6.0,70,0.00,,,0.00,0,WxPro DR1,2013-02-08 08:16:00,
2013-02-08 03:21:00,32.0,23.3,30.00,ESE,122,1.0,6.0,70,0.00,,,0.00,0,WxPro DR1,2013-02-08 08:21:00,
2013-02-08 03:26:00,31.9,23.3,30.00,ESE,112,1.0,4.0,70,0.00,,,0.00,0,WxPro DR1,2013-02-08 08:26:00,
2013-02-08 03:31:00,31.8,23.5,30.00,ESE,106,2.0,4.0,71,0.00,,,0.00,0,WxPro DR1,2013-02-08 08:31:00,
2013-02-08 03:36:00,31.7,23.4,30.00,East,85,2.0,5.0,71,0.00,,,0.00,0,WxPro DR1,2013-02-08 08:36:00,
2013-02-08 03:41:00,31.7,23.4,30.00,ESE,107,2.0,5.0,71,0.00,,,0.00,0,WxPro DR1,2013-02-08 08:41:00,
2013-02-08 03:46:00,31.6,23.3,29.99,ESE,110,3.0,7.0,71,0.00,,,0.00,0,WxPro DR1,2013-02-08 08:46:00,
2013-02-08 03:51:00,31.6,23.3,29.99,ESE,113,0.0,7.0,71,0.00,,,0.00,0,WxPro DR1,2013-02-08 08:51:00,
2013-02-08 03:56:00,31.6,23.6,29.98,ESE,110,3.0,5.0,72,0.00,,,0.00,0,WxPro DR1,2013-02-08 08:56:00,
2013-02-08 04:01:00,31.6,23.6,29.98,ENE,76,1.0,5.0,72,0.00,,,0.00,0,WxPro DR1,2013-02-08 09:01:00,
2013-02-08 04:06:00,31.6,23.6,29.98,East,90,3.0,5.0,72,0.00,,,0.00,0,WxPro DR1,2013-02-08 09:06:00,
2013-02-08 04:11:00,31.7,23.9,29.98,ESE,102,4.0,5.0,72,0.00,,,0.00,0,WxPro DR1,2013-02-08 09:11:00,
2013-02-08 04:16:00,31.9,24.2,29.98,East,99,3.0,5.0,73,0.00,,,0.00,0,WxPro DR1,2013-02-08 09:16:00,
2013-02-08 04:21:00,32.0,24.3,29.98,SE,126,2.0,5.0,73,0.00,,,0.00,0,WxPro DR1,2013-02-08 09:21:00,
2013-02-08 04:26:00,32.0,24.7,29.98,East,92,2.0,5.0,74,0.00,,,0.00,0,WxPro DR1,2013-02-08 09:26:00,
2013-02-08 04:31:00,32.2,24.8,29.98,East,94,0.0,4.0,74,0.00,,,0.00,0,WxPro DR1,2013-02-08 09:31:00,
2013-02-08 04:36:00,32.3,24.9,29.98,East,94,0.0,4.0,74,0.00,,,0.00,0,WxPro DR1,2013-02-08 09:36:00,
2013-02-08 04:41:00,32.3,25.3,29.98,East,98,3.0,4.0,75,0.00,,,0.00,0,WxPro DR1,2013-02-08 09:41:00,
2013-02-08 04:46:00,32.3,25.3,29.98,ESE,102,1.0,5.0,75,0.00,,,0.00,0,WxPro DR1,2013-02-08 09:46:00,
2013-02-08 04:51:00,32.5,25.5,29.98,East,97,1.0,5.0,75,0.00,,,0.00,0,WxPro DR1,2013-02-08 09:51:00,
2013-02-08 04:56:00,32.6,25.6,29.98,East,91,1.0,4.0,75,0.00,,,0.00,0,WxPro DR1,2013-02-08 09:56:00,
2013-02-08 05:01:00,32.7,26.0,29.98,SE,128,3.0,6.0,76,0.00,,,0.00,0,WxPro DR1,2013-02-08 10:01:00,
2013-02-08 05:06:00,32.8,26.1,29.98,ESE,106,3.0,6.0,76,0.00,,,0.00,0,WxPro DR1,2013-02-08 10:06:00,
2013-02-08 05:11:00,32.9,26.2,29.97,East,99,3.0,5.0,76,0.00,,,0.00,0,WxPro DR1,2013-02-08 10:11:00,
2013-02-08 05:16:00,33.0,26.6,29.97,East,94,0.0,4.0,77,0.00,,,0.00,0,WxPro DR1,2013-02-08 10:16:00,
2013-02-08 05:21:00,33.1,26.6,29.97,East,94,1.0,3.0,77,0.00,,,0.00,0,WxPro DR1,2013-02-08 10:21:00,
2013-02-08 05:26:00,33.1,26.7,29.97,East,94,2.0,4.0,77,0.00,,,0.00,0,WxPro DR1,2013-02-08 10:26:00,
2013-02-08 05:31:00,33.2,27.1,29.97,East,94,1.0,4.0,78,0.00,,,0.00,0,WxPro DR1,2013-02-08 10:31:00,
2013-02-08 05:36:00,33.2,27.1,29.97,East,94,0.0,3.0,78,0.00,,,0.00,0,WxPro DR1,2013-02-08 10:36:00,
2013-02-08 05:41:00,33.2,27.1,29.97,East,98,1.0,3.0,78,0.00,,,0.00,0,WxPro DR1,2013-02-08 10:41:00,
2013-02-08 05:46:00,33.3,27.5,29.97,East,98,0.0,3.0,79,0.00,,,0.00,0,WxPro DR1,2013-02-08 10:46:00,
2013-02-08 05:51:00,33.3,27.5,29.97,East,100,1.0,3.0,79,0.00,,,0.00,0,WxPro DR1,2013-02-08 10:51:00,
2013-02-08 05:56:00,33.3,27.8,29.96,East,97,1.0,4.0,80,0.00,,,0.00,0,WxPro DR1,2013-02-08 10:56:00,
2013-02-08 06:01:00,33.3,27.8,29.96,ESE,106,2.0,5.0,80,0.00,,,0.00,0,WxPro DR1,2013-02-08 11:01:00,
2013-02-08 06:06:00,33.4,27.9,29.96,ESE,111,1.0,5.0,80,0.00,,,0.00,0,WxPro DR1,2013-02-08 11:06:00,
2013-02-08 06:11:00,33.5,28.3,29.95,ESE,111,2.0,5.0,81,0.00,,,0.00,0,WxPro DR1,2013-02-08 11:11:00,
2013-02-08 06:16:00,33.5,28.3,29.95,ESE,111,1.0,3.0,81,0.00,,,0.00,0,WxPro DR1,2013-02-08 11:16:00,
2013-02-08 06:21:00,33.5,28.3,29.95,ESE,115,1.0,4.0,81,0.00,,,0.00,0,WxPro DR1,2013-02-08 11:21:00,
2013-02-08 06:26:00,33.7,28.8,29.95,SE,126,2.0,9.0,82,0.00,,,0.00,0,WxPro DR1,2013-02-08 11:26:00,
2013-02-08 06:31:00,34.0,29.1,29.95,SE,128,3.0,9.0,82,0.00,,,0.00,0,WxPro DR1,2013-02-08 11:31:00,
2013-02-08 06:36:00,34.3,29.4,29.94,SE,128,0.0,7.0,82,0.00,,,0.00,0,WxPro DR1,2013-02-08 11:36:00,
2013-02-08 06:41:00,34.5,29.5,29.94,ESE,117,1.0,9.0,82,0.00,,,0.00,0,WxPro DR1,2013-02-08 11:41:00,
2013-02-08 06:46:00,34.7,29.7,29.94,SSE,152,3.0,9.0,82,0.00,,,0.00,0,WxPro DR1,2013-02-08 11:46:00,
2013-02-08 06:51:00,34.7,29.8,29.94,ESE,122,0.0,7.0,82,0.00,,,0.00,0,WxPro DR1,2013-02-08 11:51:00,
2013-02-08 06:56:00,34.7,29.8,29.94,SE,136,2.0,7.0,82,0.00,,,0.00,0,WxPro DR1,2013-02-08 11:56:00,
2013-02-08 07:01:00,34.7,29.7,29.94,SE,133,0.0,6.0,82,0.00,,,0.00,0,WxPro DR1,2013-02-08 12:01:00,
2013-02-08 07:06:00,34.5,29.6,29.94,ESE,111,1.0,4.0,82,0.00,,,0.00,0,WxPro DR1,2013-02-08 12:06:00,
2013-02-08 07:11:00,34.4,29.6,29.94,ESE,119,2.0,4.0,82,0.00,,,0.00,0,WxPro DR1,2013-02-08 12:11:00,
2013-02-08 07:16:00,34.4,29.8,29.93,SE,134,1.0,4.0,83,0.00,,,0.00,0,WxPro DR1,2013-02-08 12:16:00,
2013-02-08 07:21:00,34.4,29.8,29.93,ESE,109,2.0,5.0,83,0.00,,,0.00,0,WxPro DR1,2013-02-08 12:21:00,
2013-02-08 07:26:00,34.4,29.8,29.93,SE,126,2.0,5.0,83,0.00,,,0.00,0,WxPro DR1,2013-02-08 12:26:00,
2013-02-08 07:31:00,34.4,30.1,29.93,ESE,120,3.0,6.0,84,0.00,,,0.00,0,WxPro DR1,2013-02-08 12:31:00,
2013-02-08 07:36:00,34.6,30.3,29.92,SE,142,3.0,6.0,84,0.00,,,0.00,0,WxPro DR1,2013-02-08 12:36:00,
2013-02-08 07:41:00,34.7,30.4,29.92,SE,139,2.0,6.0,84,0.00,,,0.00,0,WxPro DR1,2013-02-08 12:41:00,
2013-02-08 07:46:00,34.7,30.4,29.92,ESE,113,3.0,6.0,84,0.00,,,0.00,5,WxPro DR1,2013-02-08 12:46:00,
2013-02-08 07:51:00,34.7,30.4,29.92,East,92,1.0,7.0,84,0.00,,,0.00,9,WxPro DR1,2013-02-08 12:51:00,
2013-02-08 07:56:00,34.5,30.2,29.92,ESE,106,6.0,9.0,84,0.00,,,0.00,9,WxPro DR1,2013-02-08 12:56:00,
2013-02-08 08:01:00,34.4,30.1,29.91,SE,133,6.0,9.0,84,0.00,,,0.00,12,WxPro DR1,2013-02-08 13:01:00,
2013-02-08 08:06:00,34.4,30.3,29.91,SE,128,5.0,9.0,85,0.00,,,0.00,12,WxPro DR1,2013-02-08 13:06:00,
2013-02-08 08:11:00,34.3,30.3,29.91,SE,138,2.0,11.0,85,0.00,,,0.00,11,WxPro DR1,2013-02-08 13:11:00,
2013-02-08 08:16:00,34.4,30.3,29.91,ESE,118,3.0,11.0,85,0.00,,,0.00,14,WxPro DR1,2013-02-08 13:16:00,
2013-02-08 08:21:00,34.4,30.4,29.90,SE,138,6.0,9.0,85,0.00,,,0.00,23,WxPro DR1,2013-02-08 13:21:00,
2013-02-08 08:26:00,34.4,30.4,29.90,SE,136,3.0,9.0,85,0.00,,,0.00,25,WxPro DR1,2013-02-08 13:26:00,
2013-02-08 08:31:00,34.4,30.4,29.90,SE,124,4.0,9.0,85,0.00,,,0.00,25,WxPro DR1,2013-02-08 13:31:00,
2013-02-08 08:36:00,34.6,30.5,29.89,SE,124,3.0,8.0,85,0.00,,,0.00,23,WxPro DR1,2013-02-08 13:36:00,
2013-02-08 08:41:00,34.8,30.8,29.89,SE,132,5.0,9.0,85,0.00,,,0.00,21,WxPro DR1,2013-02-08 13:41:00,
2013-02-08 08:46:00,35.0,31.0,29.89,SE,124,3.0,10.0,85,0.00,,,0.00,25,WxPro DR1,2013-02-08 13:46:00,
2013-02-08 08:51:00,35.3,31.2,29.89,SE,131,4.0,10.0,85,0.00,,,0.00,28,WxPro DR1,2013-02-08 13:51:00,
2013-02-08 08:56:00,35.6,31.5,29.88,SE,128,6.0,10.0,85,0.00,,,0.00,32,WxPro DR1,2013-02-08 13:56:00,
2013-02-08 09:01:00,35.7,31.7,29.88,SE,138,2.0,10.0,85,0.00,,,0.00,28,WxPro DR1,2013-02-08 14:01:00,
2013-02-08 09:06:00,35.8,31.8,29.88,SE,124,0.0,7.0,85,0.00,,,0.00,30,WxPro DR1,2013-02-08 14:06:00,
2013-02-08 09:11:00,35.9,31.8,29.88,SE,126,2.0,10.0,85,0.00,,,0.00,28,WxPro DR1,2013-02-08 14:11:00,
2013-02-08 09:16:00,35.8,32.1,29.88,ESE,123,5.0,10.0,86,0.00,,,0.00,23,WxPro DR1,2013-02-08 14:16:00,
2013-02-08 09:21:00,35.8,32.0,29.88,SE,124,7.0,9.0,86,0.00,,,0.00,21,WxPro DR1,2013-02-08 14:21:00,
2013-02-08 09:26:00,35.7,32.2,29.87,SE,124,0.0,9.0,87,0.00,,,0.00,23,WxPro DR1,2013-02-08 14:26:00,
2013-02-08 09:31:00,35.7,32.2,29.87,ESE,103,3.0,8.0,87,0.00,,,0.00,28,WxPro DR1,2013-02-08 14:31:00,
2013-02-08 09:36:00,35.4,32.0,29.87,ESE,116,4.0,7.0,87,0.00,,,0.00,33,WxPro DR1,2013-02-08 14:36:00,
2013-02-08 09:41:00,34.8,31.6,29.87,East,101,6.0,7.0,88,0.00,,,0.00,25,WxPro DR1,2013-02-08 14:41:00,
2013-02-08 09:46:00,34.4,31.5,29.87,ESE,109,2.0,9.0,89,0.00,,,0.00,26,WxPro DR1,2013-02-08 14:46:00,
2013-02-08 09:51:00,34.3,31.7,29.87,ESE,120,1.0,9.0,90,0.00,,,0.00,30,WxPro DR1,2013-02-08 14:51:00,
2013-02-08 09:56:00,34.2,31.5,29.86,ESE,105,3.0,5.0,90,0.00,,,0.00,30,WxPro DR1,2013-02-08 14:56:00,
2013-02-08 10:01:00,34.1,31.7,29.86,East,97,1.0,5.0,91,0.00,,,0.00,30,WxPro DR1,2013-02-08 15:01:00,
2013-02-08 10:06:00,34.0,31.7,29.86,East,99,0.0,4.0,91,0.00,,,0.00,25,WxPro DR1,2013-02-08 15:06:00,
2013-02-08 10:11:00,33.9,31.8,29.86,ESE,112,0.0,4.0,92,0.00,,,0.00,23,WxPro DR1,2013-02-08 15:11:00,
2013-02-08 10:16:00,33.9,32.0,29.86,ESE,107,1.0,4.0,93,0.00,,,0.00,26,WxPro DR1,2013-02-08 15:16:00,
2013-02-08 10:21:00,33.9,32.1,29.86,ESE,105,4.0,4.0,93,0.00,,,0.00,30,WxPro DR1,2013-02-08 15:21:00,
2013-02-08 10:26:00,34.0,32.2,29.85,East,86,1.0,4.0,93,0.00,,,0.00,28,WxPro DR1,2013-02-08 15:26:00,
2013-02-08 10:31:00,34.0,32.2,29.85,ESE,106,2.0,4.0,93,0.00,,,0.00,28,WxPro DR1,2013-02-08 15:31:00,
2013-02-08 10:36:00,33.9,32.4,29.85,ESE,111,3.0,4.0,94,0.00,,,0.00,30,WxPro DR1,2013-02-08 15:36:00,
2013-02-08 10:41:00,33.9,32.4,29.85,ESE,111,2.0,4.0,94,0.00,,,0.00,30,WxPro DR1,2013-02-08 15:41:00,
2013-02-08 10:46:00,33.9,32.4,29.84,ESE,111,0.0,4.0,94,0.00,,,0.00,39,WxPro DR1,2013-02-08 15:46:00,
2013-02-08 10:51:00,34.0,32.4,29.84,ESE,111,2.0,5.0,94,0.00,,,0.00,35,WxPro DR1,2013-02-08 15:51:00,
2013-02-08 10:56:00,34.0,32.5,29.84,ESE,102,2.0,5.0,94,0.00,,,0.00,39,WxPro DR1,2013-02-08 15:56:00,
2013-02-08 11:01:00,34.0,32.7,29.83,ESE,107,1.0,5.0,95,0.00,,,0.00,42,WxPro DR1,2013-02-08 16:01:00,
2013-02-08 11:06:00,34.0,32.7,29.82,East,101,1.0,4.0,95,0.00,,,0.00,44,WxPro DR1,2013-02-08 16:06:00,
2013-02-08 11:11:00,34.0,32.7,29.82,East,90,1.0,6.0,95,0.00,,,0.00,46,WxPro DR1,2013-02-08 16:11:00,
2013-02-08 11:16:00,34.0,32.8,29.82,East,99,2.0,6.0,95,0.00,,,0.00,46,WxPro DR1,2013-02-08 16:16:00,
2013-02-08 11:21:00,34.1,32.8,29.82,East,100,1.0,3.0,95,0.00,,,0.00,44,WxPro DR1,2013-02-08 16:21:00,
2013-02-08 11:26:00,34.1,32.8,29.81,East,99,1.0,2.0,95,0.01,,,0.01,40,WxPro DR1,2013-02-08 16:26:00,
2013-02-08 11:31:00,34.1,32.8,29.81,East,89,1.0,3.0,95,0.01,,,0.01,39,WxPro DR1,2013-02-08 16:31:00,
2013-02-08 11:36:00,34.1,32.8,29.81,ESE,111,1.0,6.0,95,0.01,,,0.01,40,WxPro DR1,2013-02-08 16:36:00,
2013-02-08 11:41:00,34.2,32.9,29.81,ESE,111,0.0,6.0,95,0.02,,,0.02,40,WxPro DR1,2013-02-08 16:41:00,
2013-02-08 11:46:00,34.2,32.9,29.81,ESE,105,0.0,3.0,95,0.02,,,0.02,37,WxPro DR1,2013-02-08 16:46:00,
2013-02-08 11:51:00,34.2,33.2,29.81,ESE,105,0.0,3.0,96,0.02,,,0.02,35,WxPro DR1,2013-02-08 16:51:00,
2013-02-08 11:56:00,34.3,33.3,29.81,ESE,105,0.0,2.0,96,0.03,,,0.03,33,WxPro DR1,2013-02-08 16:56:00,
2013-02-08 12:01:00,34.3,33.3,29.81,ESE,105,0.0,2.0,96,0.03,,,0.03,30,WxPro DR1,2013-02-08 17:01:00,
2013-02-08 12:06:00,34.3,33.3,29.81,ESE,105,0.0,2.0,96,0.03,,,0.03,28,WxPro DR1,2013-02-08 17:06:00,
2013-02-08 12:11:00,34.3,33.3,29.80,ESE,105,1.0,2.0,96,0.04,,,0.04,32,WxPro DR1,2013-02-08 17:11:00,
2013-02-08 12:16:00,34.2,32.9,29.80,ESE,104,1.0,2.0,95,0.04,,,0.04,28,WxPro DR1,2013-02-08 17:16:00,
2013-02-08 12:21:00,34.0,32.8,29.80,ESE,103,1.0,2.0,95,0.04,,,0.04,25,WxPro DR1,2013-02-08 17:21:00,
2013-02-08 12:26:00,33.9,32.9,29.80,ESE,102,0.0,2.0,96,0.03,,,0.04,21,WxPro DR1,2013-02-08 17:26:00,
2013-02-08 12:31:00,33.8,32.8,29.80,ESE,102,0.0,2.0,96,0.03,,,0.04,26,WxPro DR1,2013-02-08 17:31:00,
2013-02-08 12:36:00,33.8,32.8,29.79,East,99,0.0,2.0,96,0.03,,,0.04,25,WxPro DR1,2013-02-08 17:36:00,
2013-02-08 12:41:00,33.7,32.7,29.79,East,98,0.0,2.0,96,0.02,,,0.04,19,WxPro DR1,2013-02-08 17:41:00,
2013-02-08 12:46:00,33.7,32.7,29.79,East,99,0.0,2.0,96,0.02,,,0.04,18,WxPro DR1,2013-02-08 17:46:00,
2013-02-08 12:51:00,33.7,32.7,29.79,East,99,0.0,2.0,96,0.02,,,0.04,16,WxPro DR1,2013-02-08 17:51:00,
2013-02-08 12:56:00,33.6,32.6,29.79,East,98,0.0,2.0,96,0.01,,,0.04,12,WxPro DR1,2013-02-08 17:56:00,
2013-02-08 13:01:00,33.6,32.6,29.79,East,98,0.0,2.0,96,0.01,,,0.04,16,WxPro DR1,2013-02-08 18:01:00,
2013-02-08 13:06:00,33.6,32.6,29.79,East,99,0.0,2.0,96,0.02,,,0.05,14,WxPro DR1,2013-02-08 18:06:00,
2013-02-08 13:11:00,33.5,32.5,29.79,East,99,0.0,2.0,96,0.01,,,0.05,16,WxPro DR1,2013-02-08 18:11:00,
2013-02-08 13:16:00,33.5,32.5,29.78,East,99,0.0,2.0,96,0.01,,,0.05,14,WxPro DR1,2013-02-08 18:16:00,
2013-02-08 13:21:00,33.5,32.5,29.78,NE,55,2.0,2.0,96,0.01,,,0.05,12,WxPro DR1,2013-02-08 18:21:00,
2013-02-08 13:26:00,33.5,32.5,29.78,NE,55,2.0,3.0,96,0.01,,,0.05,12,WxPro DR1,2013-02-08 18:26:00,
2013-02-08 13:31:00,33.5,32.5,29.78,NE,51,0.0,3.0,96,0.01,,,0.05,11,WxPro DR1,2013-02-08 18:31:00,
2013-02-08 13:36:00,33.5,32.5,29.78,NE,51,1.0,3.0,96,0.01,,,0.05,11,WxPro DR1,2013-02-08 18:36:00,
2013-02-08 13:41:00,33.5,32.5,29.78,NE,51,0.0,3.0,96,0.01,,,0.05,11,WxPro DR1,2013-02-08 18:41:00,
2013-02-08 13:46:00,33.5,32.5,29.78,NE,51,0.0,3.0,96,0.01,,,0.05,14,WxPro DR1,2013-02-08 18:46:00,
2013-02-08 13:51:00,33.5,32.5,29.78,NE,51,0.0,3.0,96,0.01,,,0.05,12,WxPro DR1,2013-02-08 18:51:00,
2013-02-08 13:56:00,33.5,32.5,29.78,NE,51,0.0,3.0,96,0.02,,,0.06,14,WxPro DR1,2013-02-08 18:56:00,
2013-02-08 14:01:00,33.5,32.5,29.78,NE,50,0.0,3.0,96,0.02,,,0.06,12,WxPro DR1,2013-02-08 19:01:00,
2013-02-08 14:06:00,33.5,32.5,29.78,NE,38,1.0,2.0,96,0.01,,,0.06,14,WxPro DR1,2013-02-08 19:06:00,
2013-02-08 14:11:00,33.5,32.4,29.78,NE,38,0.0,2.0,96,0.01,,,0.06,12,WxPro DR1,2013-02-08 19:11:00,
2013-02-08 14:16:00,33.5,32.4,29.78,NE,35,0.0,2.0,96,0.01,,,0.06,12,WxPro DR1,2013-02-08 19:16:00,
2013-02-08 14:21:00,33.5,32.4,29.77,NE,36,0.0,1.0,96,0.01,,,0.06,12,WxPro DR1,2013-02-08 19:21:00,
2013-02-08 14:26:00,33.5,32.4,29.77,NE,36,0.0,1.0,96,0.01,,,0.06,12,WxPro DR1,2013-02-08 19:26:00,
2013-02-08 14:31:00,33.5,32.4,29.77,NE,41,0.0,2.0,96,0.01,,,0.06,12,WxPro DR1,2013-02-08 19:31:00,
2013-02-08 14:36:00,33.4,32.4,29.77,NE,39,0.0,2.0,96,0.01,,,0.06,14,WxPro DR1,2013-02-08 19:36:00,
2013-02-08 14:41:00,33.4,32.4,29.77,NE,42,0.0,1.0,96,0.01,,,0.06,12,WxPro DR1,2013-02-08 19:41:00,
2013-02-08 14:46:00,33.4,32.4,29.77,NE,43,0.0,2.0,96,0.01,,,0.06,12,WxPro DR1,2013-02-08 19:46:00,
2013-02-08 14:51:00,33.4,32.4,29.77,NE,42,0.0,2.0,96,0.01,,,0.06,11,WxPro DR1,2013-02-08 19:51:00,
2013-02-08 14:56:00,33.4,32.6,29.77,NE,39,0.0,3.0,97,0.00,,,0.06,11,WxPro DR1,2013-02-08 19:56:00,
2013-02-08 15:01:00,33.4,32.6,29.77,ENE,63,0.0,3.0,97,0.00,,,0.06,12,WxPro DR1,2013-02-08 20:01:00,
2013-02-08 15:06:00,33.3,32.5,29.77,NE,51,0.0,3.0,97,0.00,,,0.06,12,WxPro DR1,2013-02-08 20:06:00,
2013-02-08 15:11:00,33.3,32.6,29.77,NE,43,0.0,2.0,97,0.00,,,0.06,12,WxPro DR1,2013-02-08 20:11:00,
2013-02-08 15:16:00,33.3,32.5,29.77,NE,50,0.0,2.0,97,0.00,,,0.06,14,WxPro DR1,2013-02-08 20:16:00,
2013-02-08 15:21:00,33.3,32.5,29.77,NE,39,0.0,2.0,97,0.00,,,0.06,12,WxPro DR1,2013-02-08 20:21:00,
2013-02-08 15:26:00,33.3,32.5,29.77,NE,48,2.0,3.0,97,0.00,,,0.06,11,WxPro DR1,2013-02-08 20:26:00,
2013-02-08 15:31:00,33.3,32.5,29.76,NE,53,0.0,3.0,97,0.00,,,0.06,11,WxPro DR1,2013-02-08 20:31:00,
2013-02-08 15:36:00,33.2,32.4,29.76,NE,54,0.0,2.0,97,0.00,,,0.06,12,WxPro DR1,2013-02-08 20:36:00,
2013-02-08 15:41:00,33.2,32.5,29.76,ENE,59,1.0,2.0,97,0.00,,,0.06,14,WxPro DR1,2013-02-08 20:41:00,
2013-02-08 15:46:00,33.2,32.4,29.76,ENE,60,0.0,2.0,97,0.00,,,0.06,12,WxPro DR1,2013-02-08 20:46:00,
2013-02-08 15:51:00,33.2,32.4,29.76,ENE,61,0.0,2.0,97,0.00,,,0.06,11,WxPro DR1,2013-02-08 20:51:00,
2013-02-08 15:56:00,33.2,32.4,29.76,ENE,59,0.0,0.0,97,0.00,,,0.06,11,WxPro DR1,2013-02-08 20:56:00,
2013-02-08 16:01:00,32.9,32.1,29.76,ENE,61,0.0,0.0,97,0.00,,,0.06,11,WxPro DR1,2013-02-08 21:01:00,
2013-02-08 16:06:00,32.5,31.8,29.77,ENE,59,0.0,0.0,97,0.00,,,0.06,9,WxPro DR1,2013-02-08 21:06:00,
2013-02-08 16:11:00,32.2,31.5,29.76,ENE,60,0.0,0.0,97,0.01,,,0.07,9,WxPro DR1,2013-02-08 21:11:00,
2013-02-08 16:16:00,32.0,31.3,29.76,ENE,59,0.0,0.0,97,0.01,,,0.07,9,WxPro DR1,2013-02-08 21:16:00,
2013-02-08 16:21:00,31.8,31.0,29.76,ENE,59,0.0,0.0,97,0.01,,,0.07,11,WxPro DR1,2013-02-08 21:21:00,
2013-02-08 16:26:00,31.5,30.7,29.76,ENE,59,0.0,0.0,97,0.01,,,0.07,9,WxPro DR1,2013-02-08 21:26:00,
2013-02-08 16:31:00,31.3,30.5,29.77,ENE,59,0.0,0.0,97,0.01,,,0.07,9,WxPro DR1,2013-02-08 21:31:00,
2013-02-08 16:36:00,31.2,30.4,29.76,ENE,59,0.0,0.0,97,0.01,,,0.07,9,WxPro DR1,2013-02-08 21:36:00,
2013-02-08 16:41:00,31.0,30.3,29.76,ENE,59,0.0,0.0,97,0.01,,,0.07,7,WxPro DR1,2013-02-08 21:41:00,
2013-02-08 16:46:00,30.9,30.2,29.77,ENE,59,0.0,0.0,97,0.01,,,0.07,5,WxPro DR1,2013-02-08 21:46:00,
2013-02-08 16:51:00,30.8,30.0,29.76,ENE,59,0.0,0.0,97,0.01,,,0.07,5,WxPro DR1,2013-02-08 21:51:00,
2013-02-08 16:56:00,30.7,29.9,29.77,ENE,59,0.0,0.0,97,0.01,,,0.07,5,WxPro DR1,2013-02-08 21:56:00,
2013-02-08 17:01:00,30.5,29.8,29.77,ENE,59,0.0,0.0,97,0.01,,,0.07,0,WxPro DR1,2013-02-08 22:01:00,
2013-02-08 17:06:00,30.3,29.6,29.77,ENE,59,0.0,0.0,97,0.01,,,0.07,0,WxPro DR1,2013-02-08 22:06:00,
2013-02-08 17:11:00,30.1,29.4,29.77,ENE,59,0.0,0.0,97,0.00,,,0.07,0,WxPro DR1,2013-02-08 22:11:00,
2013-02-08 17:16:00,29.9,29.2,29.77,ENE,59,0.0,0.0,97,0.00,,,0.07,0,WxPro DR1,2013-02-08 22:16:00,
2013-02-08 17:21:00,29.7,28.9,29.77,ENE,59,0.0,0.0,97,0.00,,,0.07,0,WxPro DR1,2013-02-08 22:21:00,
2013-02-08 17:26:00,29.5,28.8,29.78,ENE,59,0.0,0.0,97,0.00,,,0.07,0,WxPro DR1,2013-02-08 22:26:00,
2013-02-08 17:31:00,29.4,28.7,29.78,ENE,60,0.0,0.0,97,0.00,,,0.07,0,WxPro DR1,2013-02-08 22:31:00,
2013-02-08 17:36:00,29.3,28.5,29.78,ENE,59,0.0,0.0,97,0.00,,,0.07,0,WxPro DR1,2013-02-08 22:36:00,
2013-02-08 17:41:00,29.1,28.1,29.78,ENE,59,0.0,0.0,96,0.00,,,0.07,0,WxPro DR1,2013-02-08 22:41:00,
2013-02-08 17:46:00,29.0,28.0,29.79,ENE,59,0.0,0.0,96,0.00,,,0.07,0,WxPro DR1,2013-02-08 22:46:00,
2013-02-08 17:51:00,28.9,28.1,29.79,ENE,59,0.0,0.0,97,0.00,,,0.07,0,WxPro DR1,2013-02-08 22:51:00,
2013-02-08 17:56:00,28.8,28.0,29.79,ENE,59,0.0,0.0,97,0.00,,,0.07,0,WxPro DR1,2013-02-08 22:56:00,
2013-02-08 18:01:00,28.6,27.6,29.80,ENE,59,0.0,0.0,96,0.00,,,0.07,0,WxPro DR1,2013-02-08 23:01:00,
2013-02-08 18:06:00,28.4,27.4,29.80,ENE,60,0.0,0.0,96,0.00,,,0.07,0,WxPro DR1,2013-02-08 23:06:00,
2013-02-08 18:11:00,28.3,27.3,29.81,ENE,59,0.0,0.0,96,0.00,,,0.07,0,WxPro DR1,2013-02-08 23:11:00,
2013-02-08 18:16:00,28.2,27.5,29.81,ENE,60,0.0,0.0,97,0.00,,,0.07,0,WxPro DR1,2013-02-08 23:16:00,
2013-02-08 18:21:00,28.2,27.5,29.82,ENE,59,0.0,0.0,97,0.00,,,0.07,0,WxPro DR1,2013-02-08 23:21:00,
2013-02-08 18:26:00,28.1,27.4,29.82,ENE,59,0.0,0.0,97,0.00,,,0.07,0,WxPro DR1,2013-02-08 23:26:00,
2013-02-08 18:31:00,27.9,27.0,29.82,ENE,59,0.0,0.0,96,0.00,,,0.07,0,WxPro DR1,2013-02-08 23:31:00,
2013-02-08 18:36:00,27.8,26.8,29.83,ENE,59,0.0,0.0,96,0.00,,,0.07,0,WxPro DR1,2013-02-08 23:36:00,
2013-02-08 18:42:00,27.6,26.9,29.83,ENE,60,0.0,0.0,97,0.00,,,0.07,0,WxPro DR1,2013-02-08 23:42:00,
2013-02-08 18:47:00,27.5,26.8,29.83,ENE,59,0.0,0.0,97,0.00,,,0.07,0,WxPro DR1,2013-02-08 23:47:00,
2013-02-08 18:52:00,27.5,26.8,29.84,ENE,59,0.0,0.0,97,0.00,,,0.07,0,WxPro DR1,2013-02-08 23:52:00,
2013-02-08 18:57:00,27.5,26.5,29.84,ENE,59,0.0,0.0,96,0.00,,,0.07,0,WxPro DR1,2013-02-08 23:57:00,
2013-02-08 19:02:00,27.6,26.9,29.84,ENE,59,0.0,0.0,97,0.00,,,0.07,0,WxPro DR1,2013-02-09 00:02:00,
2013-02-08 19:07:00,27.8,27.0,29.85,ENE,59,0.0,0.0,97,0.00,,,0.07,0,WxPro DR1,2013-02-09 00:07:00,
2013-02-08 19:12:00,27.5,26.5,29.86,ENE,60,0.0,0.0,96,0.00,,,0.07,0,WxPro DR1,2013-02-09 00:12:00,
2013-02-08 19:17:00,26.4,25.5,29.86,ENE,59,0.0,0.0,96,0.00,,,0.07,0,WxPro DR1,2013-02-09 00:17:00,
2013-02-08 19:22:00,25.4,24.5,29.87,ENE,59,0.0,0.0,96,0.00,,,0.07,0,WxPro DR1,2013-02-09 00:22:00,
2013-02-08 19:27:00,24.5,23.5,29.88,ENE,59,0.0,0.0,96,0.00,,,0.07,0,WxPro DR1,2013-02-09 00:27:00,
2013-02-08 19:32:00,23.9,22.7,29.88,ENE,59,0.0,0.0,95,0.00,,,0.07,0,WxPro DR1,2013-02-09 00:32:00,
2013-02-08 19:37:00,23.4,22.2,29.89,ENE,59,0.0,0.0,95,0.00,,,0.07,0,WxPro DR1,2013-02-09 00:37:00,
2013-02-08 19:42:00,22.5,21.3,29.90,ENE,59,0.0,0.0,95,0.00,,,0.07,0,WxPro DR1,2013-02-09 00:42:00,
2013-02-08 19:47:00,21.5,20.0,29.91,ENE,60,0.0,0.0,94,0.00,,,0.07,0,WxPro DR1,2013-02-09 00:47:00,
2013-02-08 19:52:00,20.8,19.3,29.91,ENE,59,0.0,0.0,94,0.00,,,0.07,0,WxPro DR1,2013-02-09 00:52:00,
2013-02-08 19:57:00,20.3,18.9,29.92,ENE,60,0.0,0.0,94,0.00,,,0.07,0,WxPro DR1,2013-02-09 00:57:00,
2013-02-08 20:02:00,19.9,18.5,29.92,ENE,59,0.0,0.0,94,0.00,,,0.07,0,WxPro DR1,2013-02-09 01:02:00,
2013-02-08 20:07:00,19.7,18.3,29.93,ENE,60,0.0,0.0,94,0.00,,,0.07,0,WxPro DR1,2013-02-09 01:07:00,
2013-02-08 20:12:00,19.6,18.1,29.94,ENE,59,0.0,0.0,94,0.00,,,0.07,0,WxPro DR1,2013-02-09 01:12:00,
2013-02-08 20:17:00,19.4,18.0,29.95,ENE,60,0.0,0.0,94,0.00,,,0.07,0,WxPro DR1,2013-02-09 01:17:00,
2013-02-08 20:22:00,19.3,17.9,29.95,ENE,59,0.0,0.0,94,0.00,,,0.07,0,WxPro DR1,2013-02-09 01:22:00,
2013-02-08 20:27:00,19.2,17.8,29.95,ENE,59,0.0,0.0,94,0.00,,,0.07,0,WxPro DR1,2013-02-09 01:27:00,
2013-02-08 20:32:00,19.0,17.6,29.96,ENE,60,0.0,0.0,94,0.00,,,0.07,0,WxPro DR1,2013-02-09 01:32:00,
2013-02-08 20:37:00,19.0,17.5,29.97,ENE,59,0.0,0.0,94,0.00,,,0.07,0,WxPro DR1,2013-02-09 01:37:00,
2013-02-08 20:42:00,18.9,17.5,29.97,ENE,60,0.0,0.0,94,0.00,,,0.07,0,WxPro DR1,2013-02-09 01:42:00,
2013-02-08 20:47:00,18.9,17.5,29.97,ENE,59,0.0,0.0,94,0.00,,,0.07,0,WxPro DR1,2013-02-09 01:47:00,
2013-02-08 20:52:00,18.9,17.4,29.98,ENE,59,0.0,0.0,94,0.00,,,0.07,0,WxPro DR1,2013-02-09 01:52:00,
2013-02-08 20:57:00,18.8,17.4,29.98,ENE,59,0.0,0.0,94,0.00,,,0.07,0,WxPro DR1,2013-02-09 01:57:00,
2013-02-08 21:02:00,18.9,17.5,29.99,ENE,59,0.0,0.0,94,0.00,,,0.07,0,WxPro DR1,2013-02-09 02:02:00,
2013-02-08 21:07:00,18.9,17.5,29.99,ENE,59,0.0,0.0,94,0.00,,,0.07,0,WxPro DR1,2013-02-09 02:07:00,
2013-02-08 21:12:00,18.9,17.5,29.99,ENE,59,0.0,0.0,94,0.00,,,0.07,0,WxPro DR1,2013-02-09 02:12:00,
2013-02-08 21:17:00,18.9,17.5,30.00,ENE,59,0.0,0.0,94,0.00,,,0.07,0,WxPro DR1,2013-02-09 02:17:00,
2013-02-08 21:22:00,18.9,17.5,30.00,ENE,59,0.0,0.0,94,0.00,,,0.07,0,WxPro DR1,2013-02-09 02:22:00,
2013-02-08 21:27:00,18.9,17.5,30.00,ENE,59,0.0,0.0,94,0.00,,,0.07,0,WxPro DR1,2013-02-09 02:27:00,
2013-02-08 21:32:00,19.0,17.5,30.01,ENE,59,0.0,0.0,94,0.00,,,0.07,0,WxPro DR1,2013-02-09 02:32:00,
2013-02-08 21:37:00,19.1,17.6,30.01,ENE,59,0.0,0.0,94,0.00,,,0.07,0,WxPro DR1,2013-02-09 02:37:00,
2013-02-08 21:42:00,19.1,17.7,30.01,ENE,59,0.0,0.0,94,0.00,,,0.07,0,WxPro DR1,2013-02-09 02:42:00,
2013-02-08 21:47:00,19.2,17.7,30.01,ENE,59,0.0,0.0,94,0.00,,,0.07,0,WxPro DR1,2013-02-09 02:47:00,
2013-02-08 21:52:00,19.2,17.8,30.02,ENE,59,0.0,0.0,94,0.00,,,0.07,0,WxPro DR1,2013-02-09 02:52:00,
2013-02-08 21:57:00,19.3,17.8,30.02,ENE,59,0.0,0.0,94,0.00,,,0.07,0,WxPro DR1,2013-02-09 02:57:00,
2013-02-08 22:02:00,19.3,17.9,30.02,ENE,60,0.0,0.0,94,0.00,,,0.07,0,WxPro DR1,2013-02-09 03:02:00,
2013-02-08 22:07:00,19.3,17.9,30.03,ENE,59,0.0,0.0,94,0.00,,,0.07,0,WxPro DR1,2013-02-09 03:07:00,
2013-02-08 22:12:00,19.3,17.9,30.03,ENE,59,0.0,0.0,94,0.00,,,0.07,0,WxPro DR1,2013-02-09 03:12:00,
2013-02-08 22:17:00,19.4,17.9,30.03,ENE,59,0.0,0.0,94,0.00,,,0.07,0,WxPro DR1,2013-02-09 03:17:00,
2013-02-08 22:22:00,19.4,18.0,30.03,ENE,59,0.0,0.0,94,0.00,,,0.07,0,WxPro DR1,2013-02-09 03:22:00,
2013-02-08 22:27:00,19.5,18.0,30.04,ENE,59,0.0,0.0,94,0.00,,,0.07,0,WxPro DR1,2013-02-09 03:27:00,
2013-02-08 22:32:00,19.5,18.1,30.04,ENE,59,0.0,0.0,94,0.00,,,0.07,0,WxPro DR1,2013-02-09 03:32:00,
2013-02-08 22:37:00,19.5,18.1,30.04,ENE,60,0.0,0.0,94,0.00,,,0.07,0,WxPro DR1,2013-02-09 03:37:00,
2013-02-08 22:42:00,19.6,18.1,30.04,ENE,59,0.0,0.0,94,0.00,,,0.07,0,WxPro DR1,2013-02-09 03:42:00,
2013-02-08 22:47:00,19.6,18.2,30.04,ENE,59,0.0,0.0,94,0.00,,,0.07,0,WxPro DR1,2013-02-09 03:47:00,
2013-02-08 22:52:00,19.6,18.2,30.05,ENE,59,0.0,0.0,94,0.00,,,0.07,0,WxPro DR1,2013-02-09 03:52:00,
2013-02-08 22:57:00,19.7,18.3,30.05,ENE,59,0.0,0.0,94,0.00,,,0.07,0,WxPro DR1,2013-02-09 03:57:00,
2013-02-08 23:02:00,19.7,18.3,30.05,ENE,60,0.0,0.0,94,0.00,,,0.07,0,WxPro DR1,2013-02-09 04:02:00,
2013-02-08 23:07:00,19.7,18.3,30.05,ENE,59,0.0,0.0,94,0.00,,,0.07,0,WxPro DR1,2013-02-09 04:07:00,
2013-02-08 23:12:00,19.7,18.3,30.05,ENE,59,0.0,0.0,94,0.00,,,0.07,0,WxPro DR1,2013-02-09 04:12:00,
2013-02-08 23:17:00,19.7,18.3,30.06,ENE,60,0.0,0.0,94,0.00,,,0.07,0,WxPro DR1,2013-02-09 04:17:00,
2013-02-08 23:22:00,19.7,18.3,30.06,ENE,59,0.0,0.0,94,0.00,,,0.07,0,WxPro DR1,2013-02-09 04:22:00,
2013-02-08 23:27:00,19.7,18.3,30.06,ENE,59,0.0,0.0,94,0.00,,,0.07,0,WxPro DR1,2013-02-09 04:27:00,
2013-02-08 23:32:00,19.7,18.3,30.06,ENE,59,0.0,0.0,94,0.00,,,0.07,0,WxPro DR1,2013-02-09 04:32:00,
2013-02-08 23:37:00,19.7,18.3,30.07,ENE,60,0.0,0.0,94,0.00,,,0.07,0,WxPro DR1,2013-02-09 04:37:00,
2013-02-08 23:42:00,19.7,18.3,30.07,ENE,59,0.0,0.0,94,0.00,,,0.07,0,WxPro DR1,2013-02-09 04:42:00,
2013-02-08 23:47:00,19.7,18.3,30.07,ENE,59,0.0,0.0,94,0.00,,,0.07,0,WxPro DR1,2013-02-09 04:47:00,
2013-02-08 23:52:00,19.7,18.3,30.07,ENE,59,0.0,0.0,94,0.00,,,0.07,0,WxPro DR1,2013-02-09 04:52:00,
2013-02-08 23:57:00,19.7,18.3,30.08,ENE,59,0.0,0.0,94,0.00,,,0.07,0,WxPro DR1,2013-02-09 04:57:00,